Velovelo
Português Nederlands 日本語 中文
Español English čeština slovenčina
русский italiano polski norsk
français Deutsch svenska عربي
 
 poprzednia strona
 Wyślij znajomemu
 Aby wydrukować
 ---> La Bernard Hinault 2007 : Résultats du 170 km

Résultats par www.chrono-course.org (56000 Vannes)

ClassNomPrénomCatC.cat..Temps......Moy...
1 BOURDON David A 1 5:13:57 32,5108
2 LEPERE Fabrice C 1 5:13:58 32,5116
3 VINCENDEAU Claude B 1 5:14:00 32,5473
4 LE VAILLANT Jean yves C 2 5:15:23 32,3518
5 LECLERC Yannick C 3 5:15:25 32,3964
6 DEBEAU Eric B 2 5:15:25 32,3554
7 CAMPION Pascal C 4 5:15:25 32,357
8 BOIZEL Amaury B 3 5:15:25 32,3601
9 COUPE Thierry C 5 5:15:25 32,3717
10 HOSCOET C 6 5:15:25 32,357
11 BERNAUDEAU Dominique C 7 5:15:26 32,3929
12 CAVAL Boris C 8 5:15:27 32,3798
13 GUILLOU André C 9 5:15:31 32,3521
14 LE PABIC Anthony A 2 5:15:46 32,3309
15 LEMERCIER Mickaël A 3 5:17:12 32,1769
16 PRIOUL Pascal D 1 5:19:50 31,9447
17 LEAUTE Antony B 4 5:20:07 31,8722
18 GAUTIER Pascal C 10 5:20:07 31,9072
19 LE GUEVELOU Jean louis D 2 5:21:51 31,7345
20 FAGOT Thierry C 11 5:23:11 31,6042
21 ULVE Loîc C 12 5:23:13 31,5705
22 MILON Roger D 3 5:24:47 31,4582
23 EON William C 13 5:27:17 31,2161
24 RIBAILT Jean philippe A 4 5:29:42 30,953
25 REMY Frédérick B 5 5:30:08 30,908
26 PORET Thierry B 6 5:30:14 30,9143
27 LEBEGUE Guy D 4 5:30:25 30,8825
28 ROULOT Gleen B 7 5:30:25 30,8821
29 VANDEWALLE Alain D 5 5:30:26 30,8881
30 LECANU Bertrand B 8 5:30:29 30,888
31 LE LOUER Laurent C 14 5:30:32 30,8686
32 SALMON Christian C 15 5:31:00 30,823
33 JEGADEN Jean D 6 5:31:07 30,8462
34 RABACHE Sylvain C 16 5:31:08 30,8623
35 GOUESBIER Henri E 1 5:31:08 30,8107
36 VEILLON Albert E 2 5:31:09 30,833
37 COULON Jean claude D 7 5:31:11 30,826
38 VEILLON Stephen A 5 5:31:11 30,8423
39 ELISABETH René C 17 5:31:11 30,822
40 LE LEU Philippe C 18 5:31:13 30,8221
41 HARDY Pierrick D 8 5:31:14 30,8381
42 CHARVIN Claude D 9 5:31:15 30,8069
43 DOUTEAU Didier C 19 5:31:20 30,8375
44 DORVAUX Céline W1 1 5:31:22 30,8071
45 TEIGNER Didier C 20 5:31:58 30,7577
46 L’ECUYER Pierre D 10 5:31:58 30,7347
47 COULOMB Jean Pierre D 11 5:32:03 30,7414
48 VERGOOYE Franc E 3 5:32:33 30,7086
49 PONTIN Yves D 12 5:32:36 30,6909
50 POULAIN Jean marie A 6 5:35:36 30,4072
51 MASCOET Christian D 13 5:37:42 30,217
52 GARNIER Dominique D 14 5:37:42 30,2104
53 CORNILLET Jacky B 9 5:37:48 30,213
54 LE GALL Gilbert D 15 5:38:05 30,1885
55 RENIER Franck B 10 5:38:48 30,1596
56 MAGNAN Nicolas B 11 5:41:12 29,9056
57 ALLAIN Ludovic A 7 5:41:32 29,8742
58 DENIS Stéve C 21 5:41:42 29,8748
59 LEFEBURE Thierry C 22 5:42:11 29,8299
60 LEVIS François C 23 5:42:14 29,8227
61 MARCE Mario D 16 5:42:15 29,8268
62 STEVENART Philippe C 24 5:42:16 29,8229
63 MESSE Michel C 25 5:42:21 29,8316
64 JAMET Pierre C 26 5:42:29 29,8095
65 TUFFIN Bruno B 12 5:42:33 29,7861
66 SOLIEC Pascal C 27 5:42:34 29,819
67 BRIEUX Gwenael B 13 5:42:42 29,8087
68 ARTHUR Yvonnick E 4 5:42:54 29,7821
69 ROUSSELAT Gérard E 5 5:42:55 29,7625
70 MAHE Olivier B 14 5:43:09 29,7345
71 NICOL Joël C 28 5:43:10 29,7322
72 COUSSY Michel E 6 5:44:00 29,6586
73 RIBAULT Yannick C 29 5:44:02 29,692
74 BOYER Fabrice A 8 5:44:18 29,6482
75 LANO Françis E 7 5:44:59 29,6156
76 CORBE Jean claude D 17 5:44:59 29,5822
77 BOYER Guy D 18 5:45:05 29,5841
78 BERNARD Claude D 19 5:48:03 29,3267
79 NIGER Gilbert C 30 5:48:31 29,3036
80 BOITARD Christian D 20 5:50:13 29,1745
81 FRENAY Fabrice A 9 5:50:36 29,1097
82 JAUNATRE Gonzague B 15 5:51:29 29,0271
83 AUDOLY Pascal C 31 5:51:58 29,0029
84 BRASSART Jean pierre D 21 5:54:39 26,6232
85 GHESTEM Didier C 32 5:54:44 28,7693
86 GUIGUEN Anthony A 10 5:55:36 28,705
87 GUIGNON Bernard E 8 5:55:48 28,6966
88 MARCOT Jean Luc D 22 5:55:48 28,6945
89 NOURRY Christian C 33 5:55:49 28,667
90 ROUSSEAU Yves D 23 5:56:36 28,6132
91 GLAZIO Pascal C 34 5:58:48 28,4684
92 LE STRAT Christian D 24 5:58:51 28,4559
93 GLOUX Bernard D 25 5:58:52 28,4544
94 CENIER Christian D 26 5:59:53 28,361
95 CLECH Gilles C 35 6:01:50 28,2305
96 BOMBARDE Thierry C 36 6:04:17 28,0203
97 RAOULT Michel D 27 6:04:45 27,9704
98 LE BONNEC Remy D 28 6:04:45 27,9721
99 LECLERC Frédéric C 37 6:04:53 27,9762
100 DUBOIS Jean yves D 29 6:06:18 27,8829
101 JEGOUZO Jean michel C 38 6:06:18 27,8627
102 LEPOTIER Guy C 39 6:07:33 27,778
103 HOYAU Patrick D 30 6:07:33 27,792
104 LE NORMAND Joel D 31 6:12:11 27,4182
105 BREJON Gérard D 32 6:13:21 27,344
106 SEUDY Olivier B 16 6:13:25 27,3589
107 RIBAULT Michel D 33 6:13:27 27,3401
108 ALLO Philippe C 40 6:13:28 27,3337
109 DUMONT Eric B 17 6:14:09 27,2961
110 GUIGOURES Denis C 41 6:14:10 27,2922
111 PILARD Maurice C 42 6:14:26 27,26
112 BRUNEAU Yoann B 18 6:18:23 26,9842
113 PROT Pascal et Marie (tandem) C 43 6:18:36 26,9751
114 JEGU Michel C 44 6:18:37 26,9659
115 BOISSINOT Jean noêl C 45 6:18:37 26,9624
116 GUILBERTEAU Pascal C 46 6:18:39 26,9602
117 MOY Joël D 34 6:18:41 26,942
118 COGNEE Ludovic A 11 6:18:43 26,9664
119 DORVAUX Françis D 35 6:20:41 26,8158
120 COUDERC Robert C 47 6:21:35 26,7523
121 CANTIN Michel D 36 6:21:42 26,7488
122 FLAUX Dominique C 48 6:21:42 27,8431
123 HOURUGOU Thierry B 19 6:23:53 26,6133
124 RENAUDIN Laurent C 49 6:24:09 26,5972
125 CATROS Jacques D 37 6:24:58 26,5197
126 THOMAS Jean luc D 38 6:27:07 26,3739
127 BELIN Pierre E 9 6:27:35 26,3477
128 VAREILLE Patrice D 39 6:27:38 26,337
129 POILVET Remi C 50 6:29:00 26,2498
130 PRUNIER Yannick D 40 6:35:21 25,8131
131 DELALANDE Bertrand C 51 6:35:27 25,8048
132 SURCOUF Robert C 52 6:35:33 25,797
133 LE PENNEC Fabrice B 20 6:35:33 25,7975
134 LOUIS Yves E 10 6:35:38 25,8028
135 LE ROLLAND Gilbert E 11 6:41:37 25,4214
136 PAILLAT Christophe B 21 6:42:16 26,3531
137 PINSON Anthony A 12 6:42:18 25,369
138 LE DENMAT Marcel E 12 6:42:47 25,3543
139 HAMON Dominique D 41 6:43:50 25,2958
140 JAGU Raymond D 42 6:44:05 25,2689
141 CHOUPAULT Gérard D 43 6:45:42 25,1599
142 PUIGRENIER Michel C 53 6:48:59 24,9638
143 GENTY Bruno C 54 6:48:59 24,965
144 BOIS Jean Pierre D 44 6:48:59 24,9614
145 BLECHER Christian C 55 6:48:59 24,9645
146 PIOFFRET André D 45 6:48:59 24,9644
147 CHAMBON Claude C 56 6:49:00 24,9614
148 PENICHOU Jérome C 57 6:49:00 24,9602
149 LE PEUTREC Eric C 58 6:49:01 24,9464
150 LE DOLEDEC Christian D 46 6:49:17 25,8881
151 VIEL Christian D 47 6:52:12 24,7722
152 MARTIN Michel E 13 6:55:14 24,5709
153 DUFRECHE Laurent B 22 6:55:30 24,5866
154 PRIE Daniel D 48 6:56:00 24,5589
155 POINSU Patrice B 23 7:02:43 24,1374
156 PIVRON Loïc C 59 7:14:31 23,4828
157 BASTIEN Jean louis E 14 7:17:53 23,3264
158 GROSBOIS Etienne C 60 7:19:22 23,227
159 LE MOUIL Pascal B 24 7:20:40 21,7125
160 MAGNAN Etienne D 49 7:25:35 22,8991
161 GUITARD Serge D 50 7:41:00 22,1481
162 LAMARE Jean Claude D 51 7:43:53 22,0109
163 HABIT Michel C 61 7:43:59 21,9959
164 VERTADIER Jean luc E 15 7:44:48 21,9608
165 MOITIE Philippe C 62 7:44:52 21,9481
166 NICOLE André D 52 7:46:17 21,9043
167 DANIEL Thierry B 25 7:54:34 21,5176
168 DEBRAND Jean marc C 63 8:08:43 20,8756
169 BLANCHARD Patrick C 64 8:09:01 19,7038
170 BRIANTAIS Florian A 13 8:09:02 19,7048
171 BODIN Hugues B 26 9:32:49 17,8222

Na górę 









Na górę  
 Strefa prywatna   Prawa autorskie-Copyright: Ciśnijcie tu żeby przeczytać!